Content
SEND FEEDBACK

Daily
Averages
Monthly
Summary
Canada

QUEBEC CITY, QUEBEC


Home > North America > Canada > Quebec
Elevation: 239 feet     Latitude: 46 48N     Longitude: 071 23W

WEATHER
 
SELECT A DAY
Number of Records: 198,020;   Date Range: 6/30/96 - 12/17/14
 
SHARE

PRINT THIS DATA

[ ← Previous Day ]
WEATHER ALMANAC - JANUARY 9, 2013
[ Next Day → ]
[ °C ]   °F
Weather ElementAverageHighLow
Temperature31.4 °F34 °F (10:00 pm)26.6 °F (6:00 am)
Dewpoint25.3 °F32 °F (7:00 pm) (7:00 pm)
Humidity85.5 %99 % (7:00 pm)73 % (1:00 pm)
Wind Speed6 mph20.7 mph (11:00 pm)
Weather ElementAverage
Visibility3.8 mi
Wind DirectionWSW (241.6 °)

Weather ElementTotal
Precipitation---
Heating Degree Days34.7 (Base 65)
Averaged from 36 records on January 9, 2013
WEATHER CONDITIONS BREAKOUT
WIND DIRECTION BREAKOUT
WEATHER BY HOUR - JANUARY 9, 2013
[ °C ]   °F
Local TimeTemperatureDewpointHumidityBarometerVisibilityWind DirectionWind SpeedGust SpeedPrecipitationEventsConditions
1:00 AM30.2 °F26.6 °F86 %30.31 in8.0 miWSW (240°)9.2 mphOvercast
2:00 AM30.2 °F26.6 °F86 %30.34 in6.0 miSW (230°)12.7 mphOvercast
3:00 AM30.2 °F26.6 °F86 %30.33 in5.0 miWSW (240°)11.5 mphOvercast
4:00 AM29.0 °F27.0 °F90 %30.31 inWSW (250°)4.6 mph
4:00 AM28.4 °F24.8 °F86 %30.32 in5.0 miSW (230°)9.2 mphOvercast
5:00 AM28.4 °F24.8 °F86 %30.31 in5.0 miWSW (250°)5.8 mphOvercast
6:00 AM26.6 °F23.0 °F86 %30.31 in5.0 miWest (280°)4.6 mphOvercast
7:00 AM28.0 °F26.0 °F91 %30.31 inWSW (250°)1.2 mph
7:00 AM28.4 °F24.8 °F86 %30.31 in5.0 miCalmMostly Cloudy
8:00 AM26.6 °F23.0 °F86 %30.29 in3.0 miCalmMostly Cloudy
9:00 AM28.4 °F24.8 °F86 %30.27 in2.5 miEast (100°)3.5 mphMostly Cloudy
10:00 AM30.0 °F28.0 °F86 %30.23 inEast (80°)3.5 mph
10:00 AM30.2 °F26.6 °F86 %30.24 in2.0 miENE (60°)5.8 mphMostly Cloudy
11:00 AM32.0 °F26.6 °F80 %30.17 in3.0 miNE (40°)2.3 mphMostly Cloudy
12:00 PM32.0 °F26.6 °F80 %30.09 in3.0 miENE (60°)5.8 mphHaze
1:00 PM33.0 °F28.0 °F73 %30.03 inENE (60°)3.5 mph
1:00 PM32.0 °F26.6 °F80 %30.04 in6.0 miNE (50°)5.8 mphHaze
2:00 PM33.8 °F26.6 °F75 %30.01 in8.0 miNorth (10°)4.6 mphMostly Cloudy
3:00 PM33.8 °F26.6 °F75 %29.94 in8.0 miENE (60°)5.8 mphOvercast
3:35 PM33.8 °F26.6 °F75 %8.0 miENE (60°)4.6 mphOvercast
4:00 PM33.0 °F28.0 °F73 %29.90 inSE (130°)1.2 mph
4:00 PM32.0 °F26.6 °F80 %29.91 in2.5 miCalmSnowLight Snow
4:22 PM32.0 °F0.0 °F1.5 miSouth (180°)4.6 mphSnowLight Snow
4:38 PM32.0 °F0.0 °F2.5 miCalmSnowLight Snow
5:00 PM32.0 °F30.2 °F93 %29.84 in2.0 miEast (90°)2.3 mphSnowLight Snow
5:22 PM32.0 °F30.2 °F93 %1.0 miENE (70°)2.3 mphSnowLight Snow
5:46 PM32.0 °F30.2 °F93 %0.0 mi2.3 (2013°)0.00 inLight Snow50
6:00 PM32.0 °F30.2 °F93 %29.80 in0.8 miENE (60°)4.6 mphSnowLight Snow
6:35 PM32.0 °F0.0 °F0.0 miCalm (2013°)0.00 inSnow0
7:00 PM32.0 °F32.0 °F99 %29.76 inEast (90°)2.3 mph
7:47 PM33.8 °F30.2 °F87 %1.5 miWSW (240°)6.9 mphSnowLight Snow
8:00 PM33.8 °F30.2 °F87 %29.74 in4.0 miWest (260°)10.4 mphSnowLight Snow
9:00 PM33.8 °F32.0 °F93 %29.74 in5.0 miWSW (250°)15.0 mphSnowLight Snow
10:00 PM34.0 °F32.0 °F91 %29.74 inWSW (250°)12.7 mph
10:00 PM33.8 °F30.2 °F87 %29.74 in4.0 miWSW (250°)18.4 mphSnowLight Snow
11:00 PM33.8 °F30.2 °F87 %29.76 in2.0 miWSW (250°)20.7 mphSnowLight Snow
Hourly data recorded from CYQB, located miles away from Quebec City, Quebec







STORIES FROM OUR PARTNERS